OAS9507 SKCC-SKRG

Flight info

Callsign OAS9507
Flight time 0h 45m
Altitude 280
Route TORAT1L TORAT DCT EJA UW26 DIPRA DIPRA3B
Aircraft A320/M-SDE3FGHIRWY/LB1

Departure

Time 2026-04-22 15:42
Airport Camilo Daza International Airport (SKCC)

Arrival

Time 2026-04-22 16:27
Airport Jose Maria Córdova International Airport (SKRG)
Time Latitude Longitude Altitude Speed Heading
2026-04-22 15:19 7.92799 -72.50838 1036 ft 0 kts 197°
2026-04-22 15:34 7.92801 -72.50838 1036 ft 2 kts 197°
2026-04-22 15:34 7.92816 -72.50833 1036 ft 2 kts 197°
2026-04-22 15:34 7.92832 -72.50828 1035 ft 2 kts 233°
2026-04-22 15:35 7.92834 -72.50818 1035 ft 2 kts 299°
2026-04-22 15:35 7.92833 -72.50815 1035 ft 0 kts 299°
2026-04-22 15:37 7.92836 -72.50820 1035 ft 2 kts 299°
2026-04-22 15:37 7.92849 -72.50845 1035 ft 6 kts 298°
2026-04-22 15:38 7.92855 -72.50857 1035 ft 3 kts 298°
2026-04-22 15:38 7.92856 -72.50884 1035 ft 3 kts 251°
2026-04-22 15:38 7.92845 -72.50904 1035 ft 3 kts 237°
2026-04-22 15:39 7.92826 -72.50925 1036 ft 7 kts 228°
2026-04-22 15:39 7.92790 -72.50982 1038 ft 11 kts 242°
2026-04-22 15:39 7.92816 -72.51042 1038 ft 12 kts 321°
2026-04-22 15:39 7.92896 -72.51088 1037 ft 15 kts 334°
2026-04-22 15:40 7.93013 -72.51074 1032 ft 20 kts 24°
2026-04-22 15:40 7.93166 -72.51027 1022 ft 27 kts 16°
2026-04-22 15:40 7.93275 -72.50995 1014 ft 17 kts 16°
2026-04-22 15:40 7.93386 -72.50973 1008 ft 16 kts 356°
2026-04-22 15:41 7.93414 -72.50951 1006 ft 5 kts 160°
2026-04-22 15:41 7.93394 -72.50958 1007 ft 0 kts 201°
2026-04-22 15:41 7.93246 -72.51004 1016 ft 64 kts 198°
2026-04-22 15:42 7.92532 -72.51225 1042 ft 143 kts 197°
2026-04-22 15:42 7.91485 -72.51544 1547 ft 161 kts 194°
2026-04-22 15:42 7.90406 -72.51842 2403 ft 159 kts 195°
2026-04-22 15:42 7.89342 -72.52124 2976 ft 157 kts 195°
2026-04-22 15:43 7.88283 -72.52407 3488 ft 157 kts 198°
2026-04-22 15:43 7.87317 -72.52909 3954 ft 157 kts 219°
2026-04-22 15:43 7.86592 -72.53739 4368 ft 163 kts 239°
2026-04-22 15:43 7.86200 -72.54867 4568 ft 184 kts 263°
2026-04-22 15:44 7.86328 -72.56205 4838 ft 199 kts 290°
2026-04-22 15:44 7.87050 -72.57395 5422 ft 201 kts 315°
2026-04-22 15:44 7.88199 -72.58155 6022 ft 202 kts 341°
2026-04-22 15:44 7.89593 -72.58325 6611 ft 204 kts
2026-04-22 15:45 7.90924 -72.57843 7176 ft 205 kts 31°
2026-04-22 15:45 7.92159 -72.57107 7771 ft 207 kts 31°
2026-04-22 15:45 7.93413 -72.56365 8340 ft 209 kts 31°
2026-04-22 15:45 7.94679 -72.55620 8938 ft 212 kts 30°
2026-04-22 15:46 7.95993 -72.54867 9246 ft 231 kts 30°
2026-04-22 15:46 7.97463 -72.54008 9535 ft 256 kts 30°
2026-04-22 15:46 7.99082 -72.53057 9931 ft 281 kts 30°
2026-04-22 15:46 8.00908 -72.52132 10265 ft 305 kts 20°
2026-04-22 15:47 8.03046 -72.51599 10540 ft 327 kts
2026-04-22 15:47 8.05362 -72.51570 11090 ft 337 kts 358°
2026-04-22 15:47 8.07721 -72.51630 11805 ft 341 kts 358°
2026-04-22 15:47 8.10077 -72.51928 12501 ft 344 kts 343°
2026-04-22 15:48 8.12273 -72.52895 13212 ft 346 kts 326°
2026-04-22 15:48 8.14045 -72.54490 13896 ft 348 kts 307°
2026-04-22 15:48 8.15212 -72.56632 14489 ft 351 kts 288°
2026-04-22 15:48 8.15568 -72.59075 15080 ft 354 kts 267°
2026-04-22 15:49 8.15051 -72.61503 15669 ft 357 kts 247°
2026-04-22 15:49 8.13712 -72.63618 16250 ft 361 kts 226°
2026-04-22 15:49 8.11698 -72.65152 16841 ft 365 kts 209°
2026-04-22 15:49 8.09469 -72.66361 17425 ft 369 kts 208°
2026-04-22 15:50 8.07184 -72.67585 18039 ft 372 kts 208°
2026-04-22 15:50 8.04980 -72.68963 18575 ft 375 kts 220°
2026-04-22 15:50 8.03141 -72.70839 19061 ft 377 kts 228°
2026-04-22 15:50 8.01381 -72.72779 19562 ft 380 kts 228°
2026-04-22 15:51 7.99600 -72.74762 20061 ft 383 kts 228°
2026-04-22 15:51 7.97796 -72.76771 20569 ft 387 kts 228°
2026-04-22 15:51 7.95975 -72.78800 21063 ft 390 kts 228°
2026-04-22 15:51 7.94168 -72.80814 21542 ft 393 kts 228°
2026-04-22 15:52 7.92319 -72.82873 22031 ft 396 kts 228°
2026-04-22 15:52 7.90455 -72.84947 22506 ft 399 kts 228°
2026-04-22 15:52 7.88581 -72.87027 22972 ft 402 kts 228°
2026-04-22 15:52 7.86712 -72.89107 23438 ft 405 kts 228°
2026-04-22 15:53 7.84812 -72.91222 23859 ft 408 kts 228°
2026-04-22 15:53 7.82894 -72.93355 24254 ft 410 kts 228°
2026-04-22 15:53 7.80986 -72.95474 24646 ft 412 kts 228°
2026-04-22 15:53 7.79051 -72.97620 25047 ft 414 kts 227°
2026-04-22 15:54 7.77105 -72.99778 25450 ft 416 kts 227°
2026-04-22 15:54 7.75143 -73.01938 25853 ft 418 kts 227°
2026-04-22 15:54 7.73183 -73.04077 26242 ft 420 kts 227°
2026-04-22 15:54 7.71186 -73.06246 26638 ft 422 kts 227°
2026-04-22 15:55 7.69179 -73.08421 27020 ft 424 kts 226°
2026-04-22 15:55 7.67158 -73.10614 27396 ft 426 kts 227°
2026-04-22 15:55 7.65131 -73.12821 27787 ft 429 kts 227°
2026-04-22 15:55 7.63129 -73.15008 28127 ft 431 kts 226°
2026-04-22 15:56 7.61084 -73.17241 28481 ft 434 kts 226°
2026-04-22 15:56 7.59025 -73.19485 28845 ft 436 kts 226°
2026-04-22 15:56 7.56949 -73.21744 29222 ft 439 kts 226°
2026-04-22 15:56 7.54889 -73.23986 29594 ft 442 kts 226°
2026-04-22 15:57 7.52793 -73.26272 29985 ft 445 kts 226°
2026-04-22 15:57 7.50682 -73.28575 30324 ft 447 kts 226°
2026-04-22 15:57 7.48558 -73.30891 30651 ft 450 kts 226°
2026-04-22 15:57 7.46449 -73.33188 30964 ft 452 kts 226°
2026-04-22 15:58 7.44296 -73.35527 31290 ft 455 kts 226°
2026-04-22 15:58 7.42132 -73.37876 31616 ft 457 kts 226°
2026-04-22 15:58 7.40699 -73.39431 31854 ft 458 kts 226°
2026-04-22 15:58 7.38535 -73.41780 32329 ft 456 kts 226°
2026-04-22 15:59 7.36379 -73.44125 32825 ft 454 kts 226°
2026-04-22 15:59 7.34235 -73.46463 33317 ft 453 kts 226°
2026-04-22 15:59 7.32093 -73.48797 33789 ft 453 kts 226°
2026-04-22 15:59 7.29954 -73.51125 33960 ft 452 kts 226°
2026-04-22 16:00 7.27841 -73.53423 33984 ft 441 kts 226°
2026-04-22 16:00 7.25772 -73.55671 33984 ft 436 kts 226°
2026-04-22 16:00 7.21678 -73.60119 33980 ft 434 kts 226°
2026-04-22 16:01 7.17563 -73.64590 33976 ft 434 kts 226°
2026-04-22 16:01 7.13473 -73.69034 33977 ft 434 kts 226°
2026-04-22 16:02 7.09354 -73.73506 33978 ft 434 kts 226°
2026-04-22 16:02 7.05267 -73.77946 33980 ft 435 kts 226°
2026-04-22 16:03 7.01594 -73.82789 33982 ft 436 kts 240°
2026-04-22 16:03 6.98636 -73.88117 33979 ft 437 kts 239°
2026-04-22 16:04 6.95675 -73.93423 33983 ft 437 kts 239°
2026-04-22 16:04 6.92689 -73.98765 33989 ft 437 kts 239°
2026-04-22 16:05 6.89693 -74.04104 33992 ft 437 kts 239°
2026-04-22 16:05 6.86696 -74.09442 33993 ft 437 kts 239°
2026-04-22 16:06 6.83727 -74.14753 33992 ft 437 kts 239°
2026-04-22 16:06 6.80740 -74.20092 33993 ft 437 kts 239°
2026-04-22 16:07 6.77764 -74.25397 33999 ft 437 kts 239°
2026-04-22 16:07 6.74775 -74.30735 33996 ft 437 kts 239°
2026-04-22 16:08 6.71784 -74.36080 34004 ft 437 kts 239°
2026-04-22 16:08 6.68590 -74.41270 33864 ft 445 kts 229°
2026-04-22 16:09 6.66545 -74.43627 33163 ft 448 kts 227°
2026-04-22 16:09 6.64452 -74.45958 32544 ft 447 kts 226°
2026-04-22 16:09 6.62351 -74.48253 32005 ft 444 kts 226°
2026-04-22 16:09 6.60252 -74.50530 31503 ft 441 kts 226°
2026-04-22 16:10 6.58174 -74.52788 31007 ft 438 kts 226°
2026-04-22 16:10 6.56113 -74.55039 30524 ft 435 kts 227°
2026-04-22 16:10 6.54084 -74.57269 30045 ft 431 kts 227°
2026-04-22 16:10 6.52069 -74.59496 29496 ft 428 kts 227°
2026-04-22 16:11 6.50098 -74.61680 28986 ft 424 kts 227°
2026-04-22 16:11 6.48124 -74.63868 28440 ft 421 kts 227°
2026-04-22 16:11 6.46158 -74.66043 28021 ft 416 kts 227°
2026-04-22 16:11 6.44247 -74.68154 27584 ft 411 kts 227°
2026-04-22 16:12 6.42326 -74.70274 27168 ft 407 kts 227°
2026-04-22 16:12 6.40425 -74.72375 26746 ft 403 kts 227°
2026-04-22 16:12 6.38541 -74.74455 26320 ft 401 kts 227°
2026-04-22 16:12 6.36659 -74.76528 25880 ft 399 kts 227°
2026-04-22 16:13 6.34814 -74.78560 25448 ft 397 kts 227°
2026-04-22 16:13 6.32958 -74.80607 24988 ft 396 kts 227°
2026-04-22 16:13 6.31102 -74.82655 24544 ft 394 kts 227°
2026-04-22 16:13 6.29254 -74.84697 24165 ft 391 kts 227°
2026-04-22 16:14 6.27444 -74.86696 23698 ft 391 kts 227°
2026-04-22 16:14 6.25620 -74.88710 23187 ft 389 kts 227°
2026-04-22 16:14 6.23813 -74.90706 22815 ft 383 kts 227°
2026-04-22 16:14 6.22008 -74.92694 22334 ft 380 kts 227°
2026-04-22 16:15 6.20233 -74.94647 21820 ft 379 kts 227°
2026-04-22 16:15 6.18466 -74.96594 21371 ft 375 kts 227°
2026-04-22 16:15 6.16733 -74.98501 20961 ft 371 kts 227°
2026-04-22 16:15 6.14992 -75.00415 20511 ft 368 kts 227°
2026-04-22 16:16 6.13260 -75.02321 20022 ft 367 kts 227°
2026-04-22 16:16 6.11547 -75.04206 19594 ft 364 kts 227°
2026-04-22 16:16 6.09843 -75.06083 19185 ft 361 kts 227°
2026-04-22 16:16 6.08172 -75.07926 18787 ft 359 kts 227°
2026-04-22 16:17 6.06486 -75.09782 18405 ft 356 kts 227°
2026-04-22 16:17 6.04833 -75.11603 17653 ft 350 kts 227°
2026-04-22 16:17 6.03209 -75.13394 17028 ft 341 kts 227°
2026-04-22 16:17 6.01651 -75.15113 16678 ft 333 kts 227°
2026-04-22 16:18 6.00104 -75.16817 16475 ft 325 kts 227°
2026-04-22 16:18 5.98582 -75.18494 16114 ft 324 kts 227°
2026-04-22 16:18 5.97061 -75.20167 15693 ft 320 kts 227°
2026-04-22 16:18 5.95579 -75.21797 15132 ft 320 kts 227°
2026-04-22 16:19 5.94082 -75.23444 14771 ft 318 kts 227°
2026-04-22 16:19 5.92596 -75.25080 14423 ft 314 kts 227°
2026-04-22 16:19 5.91152 -75.26671 14134 ft 299 kts 227°
2026-04-22 16:19 5.89795 -75.28168 14014 ft 280 kts 227°
2026-04-22 16:20 5.88579 -75.29634 13735 ft 268 kts 237°
2026-04-22 16:20 5.87841 -75.31312 13525 ft 265 kts 255°
2026-04-22 16:20 5.87604 -75.33154 13142 ft 269 kts 269°
2026-04-22 16:20 5.87599 -75.35025 12738 ft 265 kts 269°
2026-04-22 16:21 5.87636 -75.36894 12122 ft 270 kts 276°
2026-04-22 16:21 5.88158 -75.38689 11776 ft 263 kts 295°
2026-04-22 16:21 5.89150 -75.40164 11631 ft 249 kts 312°
2026-04-22 16:21 5.90444 -75.41245 11454 ft 238 kts 328°
2026-04-22 16:22 5.93428 -75.42159 10990 ft 217 kts 357°
2026-04-22 16:22 5.94900 -75.42170 10751 ft 207 kts 358°
2026-04-22 16:22 5.96315 -75.42180 10525 ft 201 kts 358°
2026-04-22 16:23 5.99081 -75.42199 10046 ft 196 kts 359°
2026-04-22 16:23 6.00438 -75.42208 9800 ft 194 kts 358°
2026-04-22 16:23 6.01785 -75.42216 9557 ft 193 kts 358°
2026-04-22 16:24 6.03117 -75.42225 9313 ft 189 kts 358°
2026-04-22 16:24 6.05586 -75.42241 8881 ft 165 kts 358°
2026-04-22 16:24 6.06710 -75.42248 8673 ft 159 kts 358°
2026-04-22 16:25 6.07799 -75.42256 8481 ft 157 kts 358°
2026-04-22 16:25 6.09972 -75.42270 8080 ft 155 kts 359°
2026-04-22 16:25 6.11049 -75.42277 7861 ft 154 kts 359°
2026-04-22 16:26 6.12120 -75.42284 7647 ft 153 kts 359°
2026-04-22 16:26 6.13184 -75.42291 7409 ft 152 kts 359°
2026-04-22 16:26 6.14238 -75.42298 7164 ft 151 kts 359°
2026-04-22 16:26 6.15279 -75.42307 6994 ft 144 kts 359°
2026-04-22 16:27 6.16150 -75.42312 6982 ft 102 kts 360°
2026-04-22 16:27 6.16682 -75.42316 6999 ft 57 kts 359°
2026-04-22 16:27 6.16927 -75.42330 7017 ft 27 kts 345°
2026-04-22 16:27 6.17098 -75.42405 7021 ft 27 kts 330°
2026-04-22 16:28 6.17153 -75.42437 7019 ft 1 kts 330°
2026-04-22 16:28 6.17161 -75.42442 7017 ft 2 kts 330°
2026-04-22 16:28 6.17180 -75.42453 7018 ft 4 kts 330°
2026-04-22 16:28 6.17191 -75.42480 7017 ft 5 kts 273°
2026-04-22 16:29 6.17191 -75.42520 7017 ft 7 kts 269°
2026-04-22 16:29 6.17190 -75.42573 7017 ft 9 kts 270°
2026-04-22 16:29 6.17154 -75.42618 7020 ft 9 kts 187°
2026-04-22 16:29 6.17091 -75.42615 7017 ft 10 kts 189°
2026-04-22 16:30 6.17067 -75.42628 7020 ft 0 kts 213°
2026-04-22 16:30 6.17057 -75.42635 7019 ft 2 kts 213°
2026-04-22 16:30 6.17042 -75.42647 7019 ft 3 kts 220°
2026-04-22 16:30 6.17024 -75.42663 7018 ft 4 kts 228°
2026-04-22 16:31 6.17025 -75.42691 7018 ft 5 kts 294°
2026-04-22 16:31 6.17039 -75.42712 7018 ft 0 kts 306°